Volver al catálogo

STARLINK-6099

ActivoComunicacionesVLEO
NORAD 57108·PAYLOAD·🇺🇸 United States

Lanzado Jun 23, 2023 desde Cape Canaveral Space Force Station

Loading…

Próximos Pases (próximas 24 horas)

TLE

ActualizadoSource: CelesTrak SupGP

Época: Sep 14, 2026, 21:49 UTC

1 57108C 23090H   26257.90951389 -.00000896  00000+0 -32451-4 0  2571
2 57108  43.0003 292.9426 0001249 267.1332   2.6349 15.27575731    15

Sigue STARLINK-6099 en tiempo real con AllMySat

Download on the App Store